{"data":{"norad_id":64559,"epoch":"2026-05-24T19:31:18.062400Z","epoch_age_seconds":101831,"freshness":"FRESH","line1":"1 64559U 25135AH  26144.81340350  .00001359  00000+0  13824-3 0  9994","line2":"2 64559  97.7698 258.7894 0001832  29.1051 331.0270 14.92403460 50365","mean_motion":14.9240346,"eccentricity":0.0001832,"inclination_deg":97.7698,"raan_deg":258.7894,"arg_perigee_deg":29.1051,"mean_anomaly_deg":331.027,"bstar":0.00013824,"rev_number":5036,"period_min":96.488653276105,"perigee_km":589.16720659095,"apogee_km":591.72049461461,"semimajor_km":6968.5808506028,"source":"CELESTRAK","updated_at":"2026-05-25T13:38:04.616810Z"}}